Terug naar catalogus

STARLINK-35104

ActiefCommunicatieVLEO
NORAD 65631·PAYLOAD·🇺🇸 United States

Gelanceerd Sep 18, 2025 vanaf Cape Canaveral Space Force Station

Loading…

Volgende Passages (komende 24 uur)

TLE

VersSource: CelesTrak SupGP

Epoch: Sep 14, 2026, 23:07 UTC

1 65631C 25210K   26257.96368056 -.00002834  00000+0 -83755-4 0  2573
2 65631  53.1566 143.4700 0001190  88.3264 234.3909 15.34383822    10

Volg STARLINK-35104 in realtime met AllMySat

Download on the App Store